Time,TemperatureF,DewpointF,PressureIn,WindDirection,WindDirectionDegrees,WindSpeedMPH,WindSpeedGustMPH,Humidity,HourlyPrecipIn,Conditions,Clouds,dailyrainin,SolarRadiationWatts/m^2,SoftwareType,DateUTC
2013-07-01 00:01:00,70.0,46.0,-100.00,ENE,59,0.0,4.0,43,0.00,,,0.00,0.000000,,2013-07-01 07:01:00,
2013-07-01 00:11:00,70.0,46.0,-100.00,ENE,59,0.0,4.0,43,0.00,,,0.00,0.000000,,2013-07-01 07:11:00,
2013-07-01 00:43:00,68.0,46.0,-100.00,NNW,333,0.0,0.0,45,0.00,,,0.00,0.000000,,2013-07-01 07:43:00,
2013-07-01 00:53:00,68.0,46.0,-100.00,NNW,333,0.0,0.0,45,0.00,,,0.00,0.000000,,2013-07-01 07:53:00,
2013-07-01 01:01:00,68.0,46.0,-100.00,NNW,333,0.0,0.0,45,0.00,,,0.00,0.000000,,2013-07-01 08:01:00,
2013-07-01 01:11:00,68.0,46.0,-100.00,NNW,333,0.0,0.0,45,0.00,,,0.00,0.000000,,2013-07-01 08:11:00,
2013-07-01 01:43:00,66.0,46.0,-100.00,NNE,14,0.0,4.0,48,0.00,,,0.00,0.000000,,2013-07-01 08:43:00,
2013-07-01 01:52:00,66.0,46.0,-100.00,NNE,14,0.0,4.0,48,0.00,,,0.00,0.000000,,2013-07-01 08:52:00,
2013-07-01 02:02:00,66.0,46.0,-100.00,NNE,14,0.0,4.0,48,0.00,,,0.00,0.000000,,2013-07-01 09:02:00,
2013-07-01 02:11:00,66.0,46.0,-100.00,NNE,14,0.0,4.0,48,0.00,,,0.00,0.000000,,2013-07-01 09:11:00,
2013-07-01 02:43:00,64.0,44.0,-100.00,North,7,0.0,4.0,48,0.00,,,0.00,0.000000,,2013-07-01 09:43:00,
2013-07-01 02:53:00,64.0,44.0,-100.00,North,7,0.0,4.0,48,0.00,,,0.00,0.000000,,2013-07-01 09:53:00,
2013-07-01 03:03:00,64.0,44.0,-100.00,North,7,0.0,4.0,48,0.00,,,0.00,0.000000,,2013-07-01 10:03:00,
2013-07-01 03:11:00,64.0,44.0,-100.00,North,7,0.0,4.0,48,0.00,,,0.00,0.000000,,2013-07-01 10:11:00,
2013-07-01 03:43:00,67.0,46.0,-100.00,SSE,156,0.0,3.0,46,0.00,,,0.00,0.000000,,2013-07-01 10:43:00,
2013-07-01 03:52:00,67.0,46.0,-100.00,SSE,156,0.0,3.0,46,0.00,,,0.00,0.000000,,2013-07-01 10:52:00,
2013-07-01 04:02:00,67.0,46.0,-100.00,SSE,156,0.0,3.0,46,0.00,,,0.00,0.000000,,2013-07-01 11:02:00,
2013-07-01 04:11:00,67.0,46.0,-100.00,SSE,156,0.0,3.0,46,0.00,,,0.00,0.000000,,2013-07-01 11:11:00,
2013-07-01 04:43:00,68.0,46.0,-100.00,SW,218,0.0,5.0,45,0.00,,,0.00,0.000000,,2013-07-01 11:43:00,
2013-07-01 04:52:00,68.0,46.0,-100.00,SW,218,0.0,5.0,45,0.00,,,0.00,0.000000,,2013-07-01 11:52:00,
2013-07-01 05:01:00,68.0,46.0,-100.00,SW,218,0.0,5.0,45,0.00,,,0.00,0.000000,,2013-07-01 12:01:00,
2013-07-01 05:11:00,68.0,46.0,-100.00,SW,218,0.0,5.0,45,0.00,,,0.00,0.000000,,2013-07-01 12:11:00,
2013-07-01 05:43:00,69.0,44.0,-100.00,West,270,1.0,5.0,40,0.00,,,0.00,0.000000,,2013-07-01 12:43:00,
2013-07-01 05:53:00,69.0,44.0,-100.00,West,270,1.0,5.0,40,0.00,,,0.00,0.000000,,2013-07-01 12:53:00,
2013-07-01 06:01:00,69.0,44.0,-100.00,West,270,1.0,5.0,40,0.00,,,0.00,0.000000,,2013-07-01 13:01:00,
2013-07-01 06:12:00,69.0,44.0,-100.00,West,270,1.0,5.0,40,0.00,,,0.00,0.000000,,2013-07-01 13:12:00,
2013-07-01 06:43:00,69.0,46.0,-100.00,WNW,292,0.0,5.0,44,0.00,,,0.00,6.000000,,2013-07-01 13:43:00,
2013-07-01 06:53:00,69.0,46.0,-100.00,WNW,292,0.0,5.0,44,0.00,,,0.00,6.000000,,2013-07-01 13:53:00,
2013-07-01 07:01:00,69.0,46.0,-100.00,WNW,292,0.0,5.0,44,0.00,,,0.00,6.000000,,2013-07-01 14:01:00,
2013-07-01 07:11:00,69.0,46.0,-100.00,WNW,292,0.0,5.0,44,0.00,,,0.00,6.000000,,2013-07-01 14:11:00,
2013-07-01 07:43:00,77.0,47.0,-100.00,ESE,118,1.0,6.0,35,-99.99,,,0.00,113.000000,,2013-07-01 14:43:00,
2013-07-01 07:53:00,77.0,47.0,-100.00,ESE,118,1.0,6.0,35,-99.99,,,0.00,113.000000,,2013-07-01 14:53:00,
2013-07-01 08:01:00,77.0,47.0,-100.00,ESE,118,1.0,6.0,35,-99.99,,,0.00,113.000000,,2013-07-01 15:01:00,
2013-07-01 08:11:00,77.0,47.0,-100.00,ESE,118,1.0,6.0,35,-99.99,,,0.00,113.000000,,2013-07-01 15:11:00,
2013-07-01 08:43:00,86.0,47.0,-100.00,SSW,209,0.0,3.0,26,-99.99,,,0.00,323.000000,,2013-07-01 15:43:00,
2013-07-01 08:53:00,86.0,47.0,-100.00,SSW,209,0.0,3.0,26,-99.99,,,0.00,323.000000,,2013-07-01 15:53:00,
2013-07-01 09:01:00,86.0,47.0,-100.00,SSW,209,0.0,3.0,26,-99.99,,,0.00,323.000000,,2013-07-01 16:01:00,
2013-07-01 09:11:00,86.0,47.0,-100.00,SSW,209,0.0,3.0,26,-99.99,,,0.00,323.000000,,2013-07-01 16:11:00,
2013-07-01 09:44:00,90.0,41.0,-100.00,WSW,240,3.0,7.0,18,0.00,,,0.00,352.000000,,2013-07-01 16:44:00,
2013-07-01 09:53:00,90.0,41.0,-100.00,WSW,240,3.0,7.0,18,0.00,,,0.00,352.000000,,2013-07-01 16:53:00,
2013-07-01 10:02:00,90.0,41.0,-100.00,WSW,240,3.0,7.0,18,0.00,,,0.00,352.000000,,2013-07-01 17:02:00,
2013-07-01 10:12:00,90.0,41.0,-100.00,WSW,240,3.0,7.0,18,0.00,,,0.00,352.000000,,2013-07-01 17:12:00,
2013-07-01 10:43:00,91.0,43.0,-100.00,SSW,205,4.0,9.0,19,0.00,,,0.00,488.000000,,2013-07-01 17:43:00,
2013-07-01 10:53:00,91.0,43.0,-100.00,SSW,205,4.0,9.0,19,0.00,,,0.00,488.000000,,2013-07-01 17:53:00,
2013-07-01 11:02:00,91.0,43.0,-100.00,SSW,205,4.0,9.0,19,0.00,,,0.00,488.000000,,2013-07-01 18:02:00,
2013-07-01 11:11:00,91.0,43.0,-100.00,SSW,205,4.0,9.0,19,0.00,,,0.00,488.000000,,2013-07-01 18:11:00,
2013-07-01 11:44:00,93.0,42.0,-100.00,SW,222,4.0,14.0,17,0.00,,,0.00,907.000000,,2013-07-01 18:44:00,
2013-07-01 11:53:00,93.0,42.0,-100.00,SW,222,4.0,14.0,17,0.00,,,0.00,907.000000,,2013-07-01 18:53:00,
2013-07-01 12:01:00,93.0,42.0,-100.00,SW,222,4.0,14.0,17,0.00,,,0.00,907.000000,,2013-07-01 19:01:00,
2013-07-01 12:11:00,93.0,42.0,-100.00,SW,222,4.0,14.0,17,0.00,,,0.00,907.000000,,2013-07-01 19:11:00,
2013-07-01 12:44:00,97.0,40.0,-100.00,West,269,4.0,13.0,14,0.00,,,0.00,1194.000000,,2013-07-01 19:44:00,
2013-07-01 12:53:00,97.0,40.0,-100.00,West,269,4.0,13.0,14,0.00,,,0.00,1194.000000,,2013-07-01 19:53:00,
2013-07-01 13:01:00,97.0,40.0,-100.00,West,269,4.0,13.0,14,0.00,,,0.00,1194.000000,,2013-07-01 20:01:00,
2013-07-01 13:11:00,97.0,40.0,-100.00,West,269,4.0,13.0,14,0.00,,,0.00,1194.000000,,2013-07-01 20:11:00,
2013-07-01 13:43:00,96.0,41.0,-100.00,WSW,237,6.0,22.0,15,0.00,,,0.00,1118.000000,,2013-07-01 20:43:00,
2013-07-01 13:52:00,96.0,41.0,-100.00,WSW,237,6.0,22.0,15,0.00,,,0.00,1118.000000,,2013-07-01 20:52:00,
2013-07-01 14:01:00,96.0,41.0,-100.00,WSW,237,6.0,22.0,15,0.00,,,0.00,1118.000000,,2013-07-01 21:01:00,
2013-07-01 14:11:00,96.0,41.0,-100.00,WSW,237,6.0,22.0,15,0.00,,,0.00,1118.000000,,2013-07-01 21:11:00,
2013-07-01 14:44:00,97.0,43.0,-100.00,SSW,211,5.0,15.0,16,0.00,,,0.00,889.000000,,2013-07-01 21:44:00,
2013-07-01 14:53:00,97.0,43.0,-100.00,SSW,211,5.0,15.0,16,0.00,,,0.00,889.000000,,2013-07-01 21:53:00,
2013-07-01 15:01:00,97.0,43.0,-100.00,SSW,211,5.0,15.0,16,0.00,,,0.00,889.000000,,2013-07-01 22:01:00,
2013-07-01 15:11:00,97.0,43.0,-100.00,SSW,211,5.0,15.0,16,0.00,,,0.00,889.000000,,2013-07-01 22:11:00,
2013-07-01 15:43:00,96.0,41.0,-100.00,SSW,204,10.0,18.0,15,0.00,,,0.00,1148.000000,,2013-07-01 22:43:00,
2013-07-01 15:53:00,96.0,41.0,-100.00,SSW,204,10.0,18.0,15,0.00,,,0.00,1148.000000,,2013-07-01 22:53:00,
2013-07-01 16:01:00,96.0,41.0,-100.00,SSW,204,10.0,18.0,15,0.00,,,0.00,1148.000000,,2013-07-01 23:01:00,
2013-07-01 16:11:00,96.0,41.0,-100.00,SSW,204,10.0,18.0,15,0.00,,,0.00,1148.000000,,2013-07-01 23:11:00,
2013-07-01 16:44:00,95.0,43.0,-100.00,SSW,200,8.0,19.0,17,0.00,,,0.00,981.000000,,2013-07-01 23:44:00,
2013-07-01 16:53:00,95.0,43.0,-100.00,SSW,200,8.0,19.0,17,0.00,,,0.00,981.000000,,2013-07-01 23:53:00,
2013-07-01 17:01:00,95.0,43.0,-100.00,SSW,200,8.0,19.0,17,0.00,,,0.00,981.000000,,2013-07-02 00:01:00,
2013-07-01 17:11:00,95.0,43.0,-100.00,SSW,200,8.0,19.0,17,0.00,,,0.00,981.000000,,2013-07-02 00:11:00,
2013-07-01 17:43:00,93.0,45.0,-100.00,SW,235,7.0,17.0,19,0.00,,,0.00,732.000000,,2013-07-02 00:43:00,
2013-07-01 17:53:00,93.0,45.0,-100.00,SW,235,7.0,17.0,19,0.00,,,0.00,732.000000,,2013-07-02 00:53:00,
2013-07-01 18:01:00,93.0,45.0,-100.00,SW,235,7.0,17.0,19,0.00,,,0.00,732.000000,,2013-07-02 01:01:00,
2013-07-01 18:11:00,93.0,45.0,-100.00,SW,235,7.0,17.0,19,0.00,,,0.00,732.000000,,2013-07-02 01:11:00,
2013-07-01 18:43:00,90.0,45.0,-100.00,West,262,4.0,15.0,21,0.00,,,0.00,364.000000,,2013-07-02 01:43:00,
2013-07-01 18:53:00,90.0,45.0,-100.00,West,262,4.0,15.0,21,0.00,,,0.00,364.000000,,2013-07-02 01:53:00,
2013-07-01 19:01:00,90.0,45.0,-100.00,West,262,4.0,15.0,21,0.00,,,0.00,364.000000,,2013-07-02 02:01:00,
2013-07-01 19:11:00,90.0,45.0,-100.00,West,262,4.0,15.0,21,0.00,,,0.00,364.000000,,2013-07-02 02:11:00,
2013-07-01 19:43:00,86.0,46.0,-100.00,West,274,2.0,10.0,25,0.00,,,0.00,203.000000,,2013-07-02 02:43:00,
2013-07-01 19:53:00,86.0,46.0,-100.00,West,274,2.0,10.0,25,0.00,,,0.00,203.000000,,2013-07-02 02:53:00,
2013-07-01 20:01:00,86.0,46.0,-100.00,West,274,2.0,10.0,25,0.00,,,0.00,203.000000,,2013-07-02 03:01:00,
2013-07-01 20:11:00,86.0,46.0,-100.00,West,274,2.0,10.0,25,0.00,,,0.00,203.000000,,2013-07-02 03:11:00,
2013-07-01 20:43:00,82.0,46.0,-100.00,NW,306,2.0,7.0,28,0.00,,,0.00,16.000000,,2013-07-02 03:43:00,
2013-07-01 20:53:00,82.0,46.0,-100.00,NW,306,2.0,7.0,28,0.00,,,0.00,16.000000,,2013-07-02 03:53:00,
2013-07-01 21:02:00,82.0,46.0,-100.00,NW,306,2.0,7.0,28,0.00,,,0.00,16.000000,,2013-07-02 04:02:00,
2013-07-01 21:11:00,82.0,46.0,-100.00,NW,306,2.0,7.0,28,0.00,,,0.00,16.000000,,2013-07-02 04:11:00,
2013-07-01 21:42:00,82.0,48.0,-100.00,NW,324,3.0,9.0,31,0.00,,,0.00,0.000000,,2013-07-02 04:42:00,
2013-07-01 21:53:00,82.0,48.0,-100.00,NW,324,3.0,9.0,31,0.00,,,0.00,0.000000,,2013-07-02 04:53:00,
2013-07-01 22:01:00,82.0,48.0,-100.00,NW,324,3.0,9.0,31,0.00,,,0.00,0.000000,,2013-07-02 05:01:00,
2013-07-01 22:11:00,82.0,48.0,-100.00,NW,324,3.0,9.0,31,0.00,,,0.00,0.000000,,2013-07-02 05:11:00,
2013-07-01 22:43:00,73.0,47.0,-100.00,SE,127,0.0,7.0,40,0.00,,,0.00,0.000000,,2013-07-02 05:43:00,
2013-07-01 22:53:00,73.0,47.0,-100.00,SE,127,0.0,7.0,40,0.00,,,0.00,0.000000,,2013-07-02 05:53:00,
2013-07-01 23:01:00,73.0,47.0,-100.00,SE,127,0.0,7.0,40,0.00,,,0.00,0.000000,,2013-07-02 06:01:00,
2013-07-01 23:11:00,73.0,47.0,-100.00,SE,127,0.0,7.0,40,0.00,,,0.00,0.000000,,2013-07-02 06:11:00,
2013-07-01 23:43:00,69.0,47.0,-100.00,WSW,238,0.0,3.0,45,0.00,,,0.00,0.000000,,2013-07-02 06:43:00,
2013-07-01 23:53:00,69.0,47.0,-100.00,WSW,238,0.0,3.0,45,0.00,,,0.00,0.000000,,2013-07-02 06:53:00,